Location: ???????
(55.4362°N, 38.1183°E)
Time: 16:44:01
(UTC+00:00)

Cosmos 2219 Rocket - Pass Details

Date: 29 October 2021
Orbit: 826 x 848 km, 71.0° (Epoch: 04 December)

Event Time Altitude Azimuth Distance (km) Brightness Sun altitude
Rises 15:10:13 0° 166° (SSE) 3,359 5.3 -11.1°
Reaches altitude 10° 15:13:06 10° 152° (SSE) 2,433 4.4 -11.5°
Maximum altitude 15:17:18 22° 102° (ESE) 1,730 3.3 -12.1°
Enters shadow 15:20:10 15° 64° (ENE) 2,095 3.7 -12.5°
